Tracking 19490 objects as of 24-Jan-2019
HD Live streaming from Space Station
objects crossing your sky now

FENGYUN 1C DEB

Track FENGYUN 1C DEB now!
10-day predictions


NORAD ID: 31786
Int'l Code: 1999-025CGM
Perigee: 825.7 km
Apogee: 991.0 km
Inclination: 97.7 °
Period: 103.0 minutes
Semi major axis: 7279 km
RCS: 0.0115 m2 (small)
Launch date: May 10, 1999
Source: People's Republic of China (PRC)
Launch site: Taiyaun Space Center, China (TSC)

Note: This is SATELLITE DEBRIS
aabbcc
Your satellite tracking list
Your tracking list is empty




NASA's NSSDC Master Catalog

Two Line Element Set (TLE):
1 31786U 99025CGM 19018.30098306 +.00000875 +00000-0 +60679-3 0  9999
2 31786 097.6887 038.9549 0113552 032.1769 328.6262 13.97862445591121
Source of the keplerian elements: AFSPC